W2GRK-15 Weather Reports


Display with metric or nautical units.
time (UTC)temp
F
wind
direction
speed
MPH
gust
MPH
rain 1hr
in
rain 24hr
in
rain mn
in
humidity
%
barometer
mb
20260504004230 53 125 1.0 2.0 0.00 0.00 0.00 48 1012.5
20260504004126 53 130 1.0 2.0 0.00 0.00 0.00 48 1012.6
20260504004041 53 124 1.0 2.0 0.00 0.00 0.00 48 1012.5
20260504003917 53 113 1.0 1.0 0.00 0.00 0.00 47 1012.5
20260504003849 53 144 1.0 2.0 0.00 0.00 0.00 48 1012.5
20260504003724 53 164 1.0 2.0 0.00 0.00 0.00 47 1012.3
20260504003620 53 0.0 1.0 0.00 0.00 0.00 45 1012.6
20260504003515 53 146 1.0 2.0 0.00 0.00 0.00 45 1012.5
20260504003427 54 150 1.0 2.0 0.00 0.00 0.00 45 1012.4
20260504003343 54 133 1.0 2.0 0.00 0.00 0.00 45 1012.5
20260504003218 54 0.0 1.0 0.00 0.00 0.00 44 1012.4
20260504003210 54 151 1.0 2.0 0.00 0.00 0.00 44 1012.3
20260504003025 54 159 1.0 2.0 0.00 0.00 0.00 44 1012.4
20260504002921 54 123 1.0 2.0 0.00 0.00 0.00 43 1012.3
20260504002837 55 120 1.0 2.0 0.00 0.00 0.00 42 1012.3
20260504002728 55 91 0.0 1.0 0.00 0.00 0.00 38 1012.1
20260504002624 55 172 1.0 2.0 0.00 0.00 0.00 38 1012.3
20260504002519 55 164 1.0 1.0 0.00 0.00 0.00 38 1012.3
20260504002415 55 142 0.0 2.0 0.00 0.00 0.00 38 1012.2
20260504002327 55 191 1.0 2.0 0.00 0.00 0.00 38 1012.3
20260504002222 55 141 1.0 2.0 0.00 0.00 0.00 38 1012.2
20260504002118 55 172 0.0 1.0 0.00 0.00 0.00 38 1012.2
20260504002030 55 187 1.0 2.0 0.00 0.00 0.00 38 1012.1
20260504001945 55 0.0 1.0 0.00 0.00 0.00 38 1011.9
20260504001820 55 0.0 1.0 0.00 0.00 0.00 38 1012.1
20260504001716 55 199 1.0 2.0 0.00 0.00 0.00 38 1012.2
20260504001627 55 172 0.0 1.0 0.00 0.00 0.00 38 1012.0
20260504001522 55 196 2.0 3.0 0.00 0.00 0.00 38 1012.2
20260504001418 55 169 1.0 2.0 0.00 0.00 0.00 39 1012.2
20260504001349 55 196 1.0 2.0 0.00 0.00 0.00 38 1012.1
20260504001225 55 185 1.0 2.0 0.00 0.00 0.00 38 1012.0
20260504001121 55 0.0 1.0 0.00 0.00 0.00 39 1012.0
20260504001036 55 141 0.0 2.0 0.00 0.00 0.00 39 1011.9
20260504000927 55 75 0.0 2.0 0.00 0.00 0.00 40 1011.9
20260504000823 55 0.0 2.0 0.00 0.00 0.00 41 1012.0
20260504000718 55 130 2.0 2.0 0.00 0.00 0.00 40 1011.9
20260504000650 55 162 1.0 2.0 0.00 0.00 0.00 39 1012.0
20260504000526 55 152 2.0 2.0 0.00 0.00 0.00 41 1011.9
20260504000423 55 159 1.0 2.0 0.00 0.00 0.00 41 1011.8
20260504000317 55 144 1.0 2.0 0.00 0.00 0.00 41 1011.9
20260504000228 56 160 0.0 2.0 0.00 0.00 0.00 40 1012.0
20260504000124 56 138 1.0 2.0 0.00 0.00 0.00 40 1011.8
20260504000019 56 50 0.0 2.0 0.00 0.00 0.00 39 1011.9
20260503235915 56 108 1.0 2.0 0.00 0.00 0.00 39 1011.9
20260503235846 56 119 1.0 2.0 0.00 0.00 0.00 40 1011.7
20260503235722 56 133 1.0 2.0 0.00 0.00 0.00 40 1011.9
20260503235618 56 138 1.0 2.0 0.00 0.00 0.00 39 1011.9
20260503235610 56 139 1.0 3.0 0.00 0.00 0.00 38 1011.8
20260503235425 57 155 0.0 1.0 0.00 0.00 0.00 36 1011.8
20260503235321 57 0.0 0.0 0.00 0.00 0.00 36 1011.8
20260503235216 57 173 0.0 2.0 0.00 0.00 0.00 35 1011.9
20260503235128 57 0.0 1.0 0.00 0.00 0.00 35 1011.8
20260503235024 57 139 1.0 2.0 0.00 0.00 0.00 37 1011.7
20260503234919 57 141 1.0 2.0 0.00 0.00 0.00 36 1011.6
20260503234851 58 160 1.0 2.0 0.00 0.00 0.00 34 1011.6
20260503234726 58 214 2.0 3.0 0.00 0.00 0.00 33 1011.6
20260503234622 58 207 2.0 2.0 0.00 0.00 0.00 34 1011.8
20260503234538 58 205 1.0 3.0 0.00 0.00 0.00 34 1011.6
20260503234429 58 187 2.0 3.0 0.00 0.00 0.00 34 1011.8
20260503234405 58 179 2.0 3.0 0.00 0.00 0.00 34 1011.7
20260503234241 58 189 3.0 4.0 0.00 0.00 0.00 33 1011.8
20260503234116 58 199 0.0 3.0 0.00 0.00 0.00 33 1011.7
20260503234028 58 202 2.0 3.0 0.00 0.00 0.00 33 1011.7
20260503233923 58 202 2.0 3.0 0.00 0.00 0.00 34 1011.6
20260503233819 58 0.0 2.0 0.00 0.00 0.00 33 1011.7
20260503233731 58 171 1.0 2.0 0.00 0.00 0.00 34 1011.8
20260503233726 58 188 1.0 2.0 0.00 0.00 0.00 33 1011.6
20260503233522 58 137 1.0 2.0 0.00 0.00 0.00 33 1011.6
20260503233417 58 172 1.0 2.0 0.00 0.00 0.00 33 1011.5
20260503233329 58 182 1.0 2.0 0.00 0.00 0.00 33 1011.5
20260503233224 58 191 3.0 4.0 0.00 0.00 0.00 32 1011.7
20260503233140 58 194 2.0 3.0 0.00 0.00 0.00 32 1011.6
20260503233016 58 185 1.0 2.0 0.00 0.00 0.00 33 1011.5
20260503232927 58 199 1.0 3.0 0.00 0.00 0.00 33 1011.5
20260503232823 58 190 2.0 5.0 0.00 0.00 0.00 32 1011.3
20260503232739 58 179 3.0 4.0 0.00 0.00 0.00 32 1011.4
20260503232630 58 172 1.0 2.0 0.00 0.00 0.00 32 1011.5
20260503232526 58 155 2.0 3.0 0.00 0.00 0.00 33 1011.6
20260503232421 58 62 1.0 2.0 0.00 0.00 0.00 33 1011.4
20260503232357 58 212 1.0 4.0 0.00 0.00 0.00 33 1011.6
20260503232229 58 198 2.0 3.0 0.00 0.00 0.00 33 1011.6
20260503232124 58 154 1.0 2.0 0.00 0.00 0.00 32 1011.7
20260503232020 58 204 1.0 3.0 0.00 0.00 0.00 33 1011.6
20260503231915 58 179 2.0 3.0 0.00 0.00 0.00 32 1011.7
20260503231847 58 207 3.0 5.0 0.00 0.00 0.00 32 1011.6
20260503231723 58 172 1.0 2.0 0.00 0.00 0.00 33 1011.5
20260503231618 58 179 1.0 2.0 0.00 0.00 0.00 32 1011.4
20260503231550 58 172 2.0 3.0 0.00 0.00 0.00 32 1011.5
20260503231425 58 184 2.0 2.0 0.00 0.00 0.00 33 1011.6
20260503231321 58 212 1.0 4.0 0.00 0.00 0.00 33 1011.4
20260503231216 58 235 2.0 4.0 0.00 0.00 0.00 33 1011.4
20260503231128 59 131 2.0 3.0 0.00 0.00 0.00 32 1011.6
20260503231023 59 82 1.0 2.0 0.00 0.00 0.00 33 1011.6
20260503230919 59 183 1.0 2.0 0.00 0.00 0.00 33 1011.4
20260503230831 59 182 2.0 4.0 0.00 0.00 0.00 32 1011.5
20260503230726 59 196 4.0 6.0 0.00 0.00 0.00 31 1011.5
20260503230622 59 194 3.0 4.0 0.00 0.00 0.00 31 1011.3
20260503230518 59 205 3.0 3.0 0.00 0.00 0.00 32 1011.4
20260503230429 59 184 3.0 4.0 0.00 0.00 0.00 31 1011.4
20260503230325 59 219 2.0 3.0 0.00 0.00 0.00 31 1011.3
20260503230221 59 200 2.0 4.0 0.00 0.00 0.00 31 1011.6
20260503230116 59 191 3.0 3.0 0.00 0.00 0.00 31 1011.5
20260503230028 59 212 3.0 4.0 0.00 0.00 0.00 31 1011.5
20260503225923 59 193 4.0 6.0 0.00 0.00 0.00 31 1011.4
20260503225819 59 214 4.0 5.0 0.00 0.00 0.00 31 1011.4
20260503225731 59 204 3.0 6.0 0.00 0.00 0.00 32 1011.2
20260503225626 59 220 2.0 3.0 0.00 0.00 0.00 32 1011.4
20260503225522 59 203 2.0 5.0 0.00 0.00 0.00 31 1011.6
20260503225417 59 201 5.0 7.0 0.00 0.00 0.00 30 1011.3
20260503225329 59 214 4.0 6.0 0.00 0.00 0.00 31 1011.5
20260503225225 59 203 5.0 10.0 0.00 0.00 0.00 31 1011.5
20260503225120 59 238 2.0 3.0 0.00 0.00 0.00 31 1011.3
20260503225016 60 193 3.0 6.0 0.00 0.00 0.00 31 1011.4
20260503224928 60 219 4.0 7.0 0.00 0.00 0.00 30 1011.3
20260503224843 60 190 4.0 8.0 0.00 0.00 0.00 30 1011.3
20260503224719 60 212 5.0 6.0 0.00 0.00 0.00 29 1011.3
20260503224630 60 201 3.0 6.0 0.00 0.00 0.00 29 1011.3
20260503224526 60 194 3.0 4.0 0.00 0.00 0.00 30 1011.2
20260503224441 60 10 1.0 3.0 0.00 0.00 0.00 30 1011.4
20260503224317 60 192 2.0 4.0 0.00 0.00 0.00 30 1011.3
20260503224229 60 128 1.0 2.0 0.00 0.00 0.00 30 1011.0
20260503224124 60 263 1.0 2.0 0.00 0.00 0.00 30 1011.2
20260503224020 60 193 1.0 3.0 0.00 0.00 0.00 29 1011.2
20260503223915 60 67 1.0 2.0 0.00 0.00 0.00 29 1011.3
20260503223847 60 8 3.0 6.0 0.00 0.00 0.00 28 1011.2
20260503223803 60 327 2.0 6.0 0.00 0.00 0.00 29 1011.2
20260503223618 60 221 2.0 4.0 0.00 0.00 0.00 29 1011.2
20260503223530 60 182 2.0 4.0 0.00 0.00 0.00 30 1011.1
20260503223426 60 180 2.0 3.0 0.00 0.00 0.00 29 1011.4
20260503223321 60 164 2.0 4.0 0.00 0.00 0.00 30 1011.3
20260503223217 60 224 3.0 4.0 0.00 0.00 0.00 30 1011.2
20260503223149 60 219 2.0 2.0 0.00 0.00 0.00 29 1011.0
20260503223024 60 28 2.0 3.0 0.00 0.00 0.00 30 1011.1
20260503222920 60 203 3.0 5.0 0.00 0.00 0.00 29 1011.3
20260503222815 60 183 3.0 5.0 0.00 0.00 0.00 30 1011.2
20260503222727 60 189 3.0 4.0 0.00 0.00 0.00 30 1011.2
20260503222622 60 164 2.0 6.0 0.00 0.00 0.00 30 1011.3
20260503222518 60 359 5.0 6.0 0.00 0.00 0.00 29 1011.0
20260503222430 60 340 2.0 2.0 0.00 0.00 0.00 29 1011.2
20260503222325 60 166 2.0 5.0 0.00 0.00 0.00 29 1011.2
20260503222221 60 324 4.0 6.0 0.00 0.00 0.00 28 1011.3
20260503222117 60 305 2.0 5.0 0.00 0.00 0.00 29 1011.2
20260503222048 60 350 4.0 5.0 0.00 0.00 0.00 29 1011.1
20260503221944 60 43 2.0 3.0 0.00 0.00 0.00 29 1011.1
20260503221819 60 311 1.0 5.0 0.00 0.00 0.00 28 1011.1
20260503221715 60 218 2.0 4.0 0.00 0.00 0.00 29 1011.2
20260503221627 60 323 4.0 6.0 0.00 0.00 0.00 28 1011.2
20260503221542 60 345 2.0 5.0 0.00 0.00 0.00 29 1011.0
20260503221518 60 351 2.0 4.0 0.00 0.00 0.00 29 1011.1
20260503221330 60 201 1.0 3.0 0.00 0.00 0.00 29 1011.1
20260503221225 60 14 1.0 3.0 0.00 0.00 0.00 28 1011.2
20260503221121 60 342 1.0 2.0 0.00 0.00 0.00 28 1010.9
20260503221016 60 52 3.0 4.0 0.00 0.00 0.00 27 1011.1
20260503220928 60 20 3.0 6.0 0.00 0.00 0.00 28 1011.1
20260503220824 60 1 2.0 4.0 0.00 0.00 0.00 29 1011.1
20260503220719 60 341 3.0 5.0 0.00 0.00 0.00 29 1011.1
20260503220651 60 9 2.0 4.0 0.00 0.00 0.00 29 1011.1
20260503220527 60 40 2.0 4.0 0.00 0.00 0.00 29 1011.1
20260503220422 60 326 4.0 7.0 0.00 0.00 0.00 28 1011.2
20260503220318 60 12 4.0 8.0 0.00 0.00 0.00 28 1011.1
20260503220229 60 348 5.0 8.0 0.00 0.00 0.00 28 1011.0
20260503220125 60 283 4.0 6.0 0.00 0.00 0.00 28 1011.3
20260503220020 60 303 3.0 5.0 0.00 0.00 0.00 28 1011.1
20260503215916 60 249 4.0 7.0 0.00 0.00 0.00 29 1011.2
20260503215828 60 117 1.0 2.0 0.00 0.00 0.00 29 1011.4
20260503215723 60 179 2.0 4.0 0.00 0.00 0.00 28 1011.2
20260503215619 60 264 1.0 4.0 0.00 0.00 0.00 29 1011.3
20260503215530 60 336 3.0 4.0 0.00 0.00 0.00 29 1011.4
20260503215426 60 65 2.0 3.0 0.00 0.00 0.00 29 1011.4
20260503215342 60 299 3.0 6.0 0.00 0.00 0.00 29 1011.3
20260503215217 60 333 3.0 7.0 0.00 0.00 0.00 27 1011.3
20260503215129 60 337 3.0 4.0 0.00 0.00 0.00 28 1011.2
20260503215104 60 321 5.0 9.0 0.00 0.00 0.00 28 1011.3
20260503214920 60 21 6.0 10.0 0.00 0.00 0.00 28 1011.6
20260503214816 60 8 4.0 8.0 0.00 0.00 0.00 28 1011.4
20260503214727 60 328 7.0 13.0 0.00 0.00 0.00 28 1011.1
20260503214623 60 333 6.0 10.0 0.00 0.00 0.00 28 1011.2
20260503214519 61 327 4.0 5.0 0.00 0.00 0.00 28 1011.2
20260503214430 61 351 4.0 8.0 0.00 0.00 0.00 28 1011.1
20260503214326 61 5 3.0 4.0 0.00 0.00 0.00 29 1011.2
20260503214221 60 124 2.0 3.0 0.00 0.00 0.00 29 1011.1
20260503214117 60 34 2.0 3.0 0.00 0.00 0.00 29 1011.1
20260503214029 60 330 3.0 5.0 0.00 0.00 0.00 29 1011.2
20260503213924 60 359 2.0 5.0 0.00 0.00 0.00 29 1011.3
20260503213840 60 88 0.0 4.0 0.00 0.00 0.00 29 1011.1
20260503213735 60 214 2.0 6.0 0.00 0.00 0.00 30 1011.2
20260503213627 60 330 3.0 5.0 0.00 0.00 0.00 30 1011.0
20260503213522 60 359 4.0 6.0 0.00 0.00 0.00 29 1011.2
20260503213418 60 297 5.0 8.0 0.00 0.00 0.00 28 1011.0
20260503213330 60 28 5.0 6.0 0.00 0.00 0.00 28 1011.4
20260503213225 60 318 3.0 6.0 0.00 0.00 0.00 28 1011.2
20260503213121 60 137 2.0 4.0 0.00 0.00 0.00 28 1011.2
20260503213036 60 281 3.0 4.0 0.00 0.00 0.00 29 1011.3
20260503212928 60 349 4.0 8.0 0.00 0.00 0.00 29 1011.1
20260503212824 60 357 3.0 9.0 0.00 0.00 0.00 28 1011.3
20260503212740 60 336 4.0 13.0 0.00 0.00 0.00 28 1011.5
20260503212615 60 337 8.0 13.0 0.00 0.00 0.00 28 1011.4
20260503212527 60 307 4.0 7.0 0.00 0.00 0.00 29 1011.0
20260503212422 60 268 3.0 5.0 0.00 0.00 0.00 29 1011.2
20260503212318 60 87 2.0 5.0 0.00 0.00 0.00 29 1011.3
20260503212229 60 318 3.0 6.0 0.00 0.00 0.00 28 1011.2
20260503212125 60 333 6.0 9.0 0.00 0.00 0.00 28 1011.4
20260503212021 60 332 3.0 5.0 0.00 0.00 0.00 28 1011.0
20260503211916 60 321 4.0 6.0 0.00 0.00 0.00 29 1011.2
20260503211828 60 319 4.0 9.0 0.00 0.00 0.00 28 1011.2
20260503211724 60 347 5.0 11.0 0.00 0.00 0.00 28 1011.2
20260503211619 60 335 4.0 5.0 0.00 0.00 0.00 29 1011.2
20260503211531 60 359 6.0 10.0 0.00 0.00 0.00 29 1011.2
20260503211447 60 316 3.0 6.0 0.00 0.00 0.00 29 1011.1
20260503211322 60 203 2.0 3.0 0.00 0.00 0.00 30 1011.1
20260503211218 60 195 3.0 7.0 0.00 0.00 0.00 29 1011.1
20260503211150 60 348 7.0 13.0 0.00 0.00 0.00 28 1011.3
20260503211025 60 37 3.0 5.0 0.00 0.00 0.00 29 1011.2
20260503210921 60 314 7.0 12.0 0.00 0.00 0.00 28 1011.1
20260503210816 60 334 4.0 8.0 0.00 0.00 0.00 28 1011.3
20260503210728 60 336 6.0 9.0 0.00 0.00 0.00 29 1011.2
20260503210623 60 343 4.0 7.0 0.00 0.00 0.00 28 1011.2
20260503210519 60 337 6.0 10.0 0.00 0.00 0.00 28 1011.2
20260503210430 60 332 5.0 10.0 0.00 0.00 0.00 29 1011.2
20260503210346 60 335 6.0 11.0 0.00 0.00 0.00 28 1011.3
20260503210221 60 257 4.0 7.0 0.00 0.00 0.00 29 1011.2
20260503210117 60 32 5.0 6.0 0.00 0.00 0.00 29 1011.3
20260503210029 60 329 5.0 7.0 0.00 0.00 0.00 28 1011.3
20260503205924 60 273 3.0 5.0 0.00 0.00 0.00 29 1011.3
20260503205820 60 324 5.0 7.0 0.00 0.00 0.00 28 1011.3
20260503205715 60 318 6.0 13.0 0.00 0.00 0.00 28 1011.2
20260503205627 60 14 4.0 9.0 0.00 0.00 0.00 28 1011.2
20260503205523 60 328 6.0 12.0 0.00 0.00 0.00 28 1011.2
20260503205518 60 321 4.0 8.0 0.00 0.00 0.00 28 1010.9
20260503205330 60 357 5.0 12.0 0.00 0.00 0.00 28 1011.2
20260503205225 60 15 5.0 9.0 0.00 0.00 0.00 29 1011.1
20260503205121 60 75 3.0 5.0 0.00 0.00 0.00 29 1011.1
20260503205016 60 332 5.0 14.0 0.00 0.00 0.00 29 1011.2
20260503204928 60 326 9.0 17.0 0.00 0.00 0.00 28 1011.1
20260503204824 60 305 4.0 13.0 0.00 0.00 0.00 29 1011.1
20260503204720 60 204 2.0 3.0 0.00 0.00 0.00 30 1010.9
20260503204615 60 358 3.0 5.0 0.00 0.00 0.00 30 1010.9
20260503204547 60 147 1.0 3.0 0.00 0.00 0.00 30 1010.8
20260503204423 60 118 2.0 4.0 0.00 0.00 0.00 30 1011.0
20260503204318 60 41 2.0 2.0 0.00 0.00 0.00 30 1011.1
20260503204230 60 227 3.0 7.0 0.00 0.00 0.00 30 1011.2
20260503204145 60 351 4.0 8.0 0.00 0.00 0.00 29 1011.0
20260503204021 60 9 5.0 7.0 0.00 0.00 0.00 29 1011.2
20260503203917 59 2 2.0 5.0 0.00 0.00 0.00 29 1011.1
20260503203828 59 355 3.0 5.0 0.00 0.00 0.00 29 1011.2
20260503203724 60 296 6.0 13.0 0.00 0.00 0.00 29 1011.3
20260503203620 60 6 4.0 6.0 0.00 0.00 0.00 29 1011.0
20260503203535 60 348 5.0 10.0 0.00 0.00 0.00 29 1011.2
20260503203427 60 330 6.0 11.0 0.00 0.00 0.00 29 1011.1
20260503203322 60 345 5.0 11.0 0.00 0.00 0.00 29 1011.2
20260503203238 60 320 5.0 12.0 0.00 0.00 0.00 29 1011.0
20260503203130 60 312 5.0 8.0 0.00 0.00 0.00 29 1011.1
20260503203025 60 316 4.0 9.0 0.00 0.00 0.00 30 1011.2
20260503202921 60 309 6.0 12.0 0.00 0.00 0.00 30 1011.4
20260503202816 60 352 4.0 7.0 0.00 0.00 0.00 30 1011.3
20260503202728 60 339 4.0 7.0 0.00 0.00 0.00 30 1011.3
20260503202624 60 342 5.0 9.0 0.00 0.00 0.00 30 1011.4
20260503202519 60 311 3.0 6.0 0.00 0.00 0.00 30 1011.3
20260503202415 60 11 1.0 3.0 0.00 0.00 0.00 30 1011.2
20260503202327 60 233 3.0 11.0 0.00 0.00 0.00 30 1011.1
20260503202242 60 330 6.0 15.0 0.00 0.00 0.00 29 1011.2
20260503202118 60 338 6.0 15.0 0.00 0.00 0.00 29 1011.2
20260503202030 60 344 2.0 6.0 0.00 0.00 0.00 30 1011.5
20260503201925 60 291 3.0 7.0 0.00 0.00 0.00 30 1011.5
20260503201821 60 289 3.0 5.0 0.00 0.00 0.00 31 1011.4
20260503201716 59 333 2.0 5.0 0.00 0.00 0.00 31 1011.5
20260503201628 59 303 6.0 12.0 0.00 0.00 0.00 30 1011.3
20260503201524 59 348 4.0 8.0 0.00 0.00 0.00 30 1011.3
20260503201439 59 355 4.0 8.0 0.00 0.00 0.00 30 1011.5
20260503201331 59 38 4.0 8.0 0.00 0.00 0.00 31 1011.4
20260503201226 59 345 5.0 10.0 0.00 0.00 0.00 30 1011.3
20260503201122 59 10 5.0 8.0 0.00 0.00 0.00 30 1011.1
20260503201018 59 345 6.0 9.0 0.00 0.00 0.00 30 1011.2
20260503200929 59 46 4.0 6.0 0.00 0.00 0.00 30 1011.5
20260503200845 59 355 6.0 13.0 0.00 0.00 0.00 30 1011.5
20260503200801 60 327 5.0 13.0 0.00 0.00 0.00 30 1011.4
20260503200616 60 18 2.0 4.0 0.00 0.00 0.00 31 1011.5
20260503200528 60 3 3.0 5.0 0.00 0.00 0.00 30 1011.4
20260503200423 60 44 3.0 5.0 0.00 0.00 0.00 31 1011.2
20260503200319 60 9 3.0 5.0 0.00 0.00 0.00 30 1011.4
20260503200231 60 272 2.0 4.0 0.00 0.00 0.00 31 1011.4
20260503200126 60 353 1.0 4.0 0.00 0.00 0.00 31 1011.4
20260503200022 60 329 3.0 4.0 0.00 0.00 0.00 30 1011.4
20260503195918 60 284 2.0 7.0 0.00 0.00 0.00 30 1011.5
20260503195829 60 341 4.0 10.0 0.00 0.00 0.00 30 1011.5
20260503195725 60 340 4.0 12.0 0.00 0.00 0.00 29 1011.6
20260503195620 60 332 4.0 7.0 0.00 0.00 0.00 32 1011.5
20260503195535 60 359 3.0 7.0 0.00 0.00 0.00 31 1011.5
20260503195427 60 342 4.0 9.0 0.00 0.00 0.00 31 1011.4
20260503195323 60 338 6.0 11.0 0.00 0.00 0.00 31 1011.4
20260503195219 60 32 5.0 6.0 0.00 0.00 0.00 30 1011.4
20260503195130 60 269 4.0 7.0 0.00 0.00 0.00 31 1011.5
20260503195106 60 257 4.0 8.0 0.00 0.00 0.00 30 1011.6
20260503194921 60 2 6.0 13.0 0.00 0.00 0.00 32 1011.4
20260503194817 60 45 3.0 5.0 0.00 0.00 0.00 30 1011.5
20260503194729 60 25 4.0 6.0 0.00 0.00 0.00 31 1011.4
20260503194624 60 47 2.0 6.0 0.00 0.00 0.00 32 1011.5
20260503194520 60 331 4.0 8.0 0.00 0.00 0.00 29 1011.7
20260503194416 60 274 4.0 9.0 0.00 0.00 0.00 31 1011.6
20260503194327 60 283 3.0 6.0 0.00 0.00 0.00 32 1011.8
20260503194223 60 339 3.0 7.0 0.00 0.00 0.00 30 1011.5
20260503194139 60 229 1.0 3.0 0.00 0.00 0.00 30 1011.5
20260503194030 60 346 2.0 6.0 0.00 0.00 0.00 30 1011.5
20260503193926 60 297 5.0 12.0 0.00 0.00 0.00 31 1011.8
20260503193821 60 203 3.0 11.0 0.00 0.00 0.00 32 1011.6
20260503193717 59 191 9.0 11.0 0.00 0.00 0.00 30 1011.5
20260503193629 59 335 3.0 10.0 0.00 0.00 0.00 31 1011.6
20260503193524 59 216 7.0 17.0 0.00 0.00 0.00 31 1011.6
20260503193420 59 253 9.0 14.0 0.00 0.00 0.00 30 1011.7
20260503193335 59 344 8.0 15.0 0.00 0.00 0.00 30 1011.7
20260503193247 60 322 6.0 16.0 0.00 0.00 0.00 31 1011.7
20260503193123 60 315 6.0 13.0 0.00 0.00 0.00 31 1011.9
20260503193019 59 289 3.0 4.0 0.00 0.00 0.00 33 1011.7
20260503192950 59 328 4.0 9.0 0.00 0.00 0.00 32 1011.6
20260503192846 59 349 5.0 9.0 0.00 0.00 0.00 30 1011.7
20260503192721 59 237 3.0 4.0 0.00 0.00 0.00 31 1012.1
20260503192617 59 324 4.0 10.0 0.00 0.00 0.00 32 1011.8
20260503192548 59 342 3.0 9.0 0.00 0.00 0.00 31 1012.0
20260503192424 59 336 5.0 8.0 0.00 0.00 0.00 31 1011.8
20260503192320 59 19 4.0 11.0 0.00 0.00 0.00 32 1011.7
20260503192215 59 359 4.0 6.0 0.00 0.00 0.00 31 1011.8
20260503192207 59 357 6.0 10.0 0.00 0.00 0.00 31 1011.9
20260503192023 59 353 4.0 5.0 0.00 0.00 0.00 32 1012.0
20260503191918 59 300 5.0 13.0 0.00 0.00 0.00 31 1012.0
20260503191850 58 271 3.0 5.0 0.00 0.00 0.00 34 1011.9
20260503191725 58 358 2.0 4.0 0.00 0.00 0.00 32 1011.9
20260503191621 58 270 1.0 4.0 0.00 0.00 0.00 34 1011.7
20260503191517 58 289 4.0 7.0 0.00 0.00 0.00 32 1011.8
20260503191428 58 4 3.0 6.0 0.00 0.00 0.00 32 1011.7
20260503191324 58 327 5.0 10.0 0.00 0.00 0.00 32 1011.8
20260503191220 58 341 4.0 6.0 0.00 0.00 0.00 32 1011.8
20260503191115 58 337 4.0 8.0 0.00 0.00 0.00 32 1011.9
20260503191027 58 324 3.0 9.0 0.00 0.00 0.00 32 1011.9
20260503190922 59 358 6.0 10.0 0.00 0.00 0.00 31 1011.9
20260503190818 59 336 6.0 11.0 0.00 0.00 0.00 31 1012.0
20260503190750 59 189 5.0 9.0 0.00 0.00 0.00 33 1012.0
20260503190625 59 335 7.0 12.0 0.00 0.00 0.00 32 1011.9
20260503190521 59 328 3.0 13.0 0.00 0.00 0.00 32 1011.9
20260503190416 59 252 6.0 15.0 0.00 0.00 0.00 32 1012.1
20260503190328 59 353 4.0 15.0 0.00 0.00 0.00 32 1011.9
20260503190224 59 341 4.0 12.0 0.00 0.00 0.00 31 1012.1
20260503190120 59 331 5.0 7.0 0.00 0.00 0.00 32 1011.8
20260503190015 58 318 5.0 12.0 0.00 0.00 0.00 33 1012.0
20260503190007 59 344 6.0 12.0 0.00 0.00 0.00 31 1012.0
20260503185822 59 340 8.0 14.0 0.00 0.00 0.00 32 1011.8
20260503185718 59 237 4.0 5.0 0.00 0.00 0.00 33 1011.9
20260503185629 59 336 5.0 10.0 0.00 0.00 0.00 32 1012.1
20260503185525 59 337 5.0 8.0 0.00 0.00 0.00 32 1012.0
20260503185421 59 219 5.0 8.0 0.00 0.00 0.00 33 1012.2
20260503185336 59 148 2.0 5.0 0.00 0.00 0.00 34 1012.2
20260503185248 59 17 3.0 7.0 0.00 0.00 0.00 34 1012.1
20260503185124 60 235 4.0 8.0 0.00 0.00 0.00 33 1012.2
20260503185059 60 343 4.0 6.0 0.00 0.00 0.00 33 1011.9
20260503184951 59 19 3.0 4.0 0.00 0.00 0.00 34 1012.1
20260503184826 59 195 3.0 5.0 0.00 0.00 0.00 34 1012.1
20260503184742 59 203 2.0 3.0 0.00 0.00 0.00 34 1012.1
20260503184618 59 261 3.0 6.0 0.00 0.00 0.00 35 1012.2
20260503184529 58 231 4.0 5.0 0.00 0.00 0.00 36 1012.0
20260503184425 58 91 3.0 5.0 0.00 0.00 0.00 34 1012.1
20260503184321 58 6 3.0 6.0 0.00 0.00 0.00 34 1012.4
20260503184216 58 345 3.0 6.0 0.00 0.00 0.00 33 1012.2
20260503184128 58 221 4.0 4.0 0.00 0.00 0.00 36 1012.2
20260503184023 58 356 3.0 6.0 0.00 0.00 0.00 34 1012.2
20260503183919 58 327 3.0 6.0 0.00 0.00 0.00 34 1012.3
20260503183830 57 256 3.0 4.0 0.00 0.00 0.00 36 1012.4
20260503183726 57 355 5.0 6.0 0.00 0.00 0.00 35 1012.3
20260503183622 57 353 5.0 7.0 0.00 0.00 0.00 34 1012.1
20260503183537 58 225 3.0 4.0 0.00 0.00 0.00 34 1012.4
20260503183429 58 166 3.0 8.0 0.00 0.00 0.00 33 1012.3
20260503183325 58 358 4.0 6.0 0.00 0.00 0.00 33 1012.4
20260503183220 58 320 4.0 6.0 0.00 0.00 0.00 35 1012.3
20260503183116 58 96 3.0 7.0 0.00 0.00 0.00 36 1012.4
20260503183027 57 318 3.0 5.0 0.00 0.00 0.00 35 1012.3
20260503182923 56 318 3.0 6.0 0.00 0.00 0.00 35 1012.1
20260503182818 56 99 1.0 4.0 0.00 0.00 0.00 35 1012.3
20260503182730 57 6 5.0 8.0 0.00 0.00 0.00 34 1012.2
20260503182626 57 352 7.0 12.0 0.00 0.00 0.00 34 1012.4
20260503182521 57 72 4.0 9.0 0.00 0.00 0.00 34 1012.3
20260503182417 57 353 4.0 8.0 0.00 0.00 0.00 34 1012.4
20260503182329 57 312 5.0 12.0 0.00 0.00 0.00 36 1012.2
20260503182225 56 16 2.0 4.0 0.00 0.00 0.00 36 1012.2
20260503182120 56 250 5.0 13.0 0.00 0.00 0.00 36 1012.3
20260503182015 56 343 8.0 13.0 0.00 0.00 0.00 34 1012.3
20260503181927 56 333 3.0 8.0 0.00 0.00 0.00 37 1012.3
20260503181823 56 73 2.0 4.0 0.00 0.00 0.00 37 1012.2
20260503181718 56 330 4.0 7.0 0.00 0.00 0.00 36 1012.1
20260503181630 56 235 3.0 5.0 0.00 0.00 0.00 36 1012.1
20260503181526 56 0 5.0 8.0 0.00 0.00 0.00 34 1012.1
20260503181421 57 11 5.0 8.0 0.00 0.00 0.00 34 1012.3
20260503181337 57 12 6.0 10.0 0.00 0.00 0.00 36 1012.3
20260503181228 57 234 2.0 4.0 0.00 0.00 0.00 36 1012.4
20260503181124 57 334 5.0 8.0 0.00 0.00 0.00 35 1012.1
20260503181020 57 346 2.0 3.0 0.00 0.00 0.00 36 1012.1
20260503180915 58 4 3.0 9.0 0.00 0.00 0.00 34 1012.3
20260503180827 58 2 5.0 9.0 0.00 0.00 0.00 34 1012.4
20260503180743 57 150 3.0 6.0 0.00 0.00 0.00 38 1012.3
20260503180618 57 328 4.0 11.0 0.00 0.00 0.00 35 1012.2
20260503180530 57 337 6.0 10.0 0.00 0.00 0.00 34 1012.2
20260503180425 57 351 4.0 8.0 0.00 0.00 0.00 35 1012.1
20260503180320 57 169 6.0 9.0 0.00 0.00 0.00 34 1012.4
20260503180216 58 285 6.0 14.0 0.00 0.00 0.00 35 1012.2
20260503180128 58 220 3.0 5.0 0.00 0.00 0.00 36 1012.1
20260503180024 58 314 6.0 12.0 0.00 0.00 0.00 34 1012.2
20260503175919 58 320 5.0 8.0 0.00 0.00 0.00 36 1012.3
20260503175851 57 244 4.0 6.0 0.00 0.00 0.00 37 1012.3
20260503175726 58 344 5.0 13.0 0.00 0.00 0.00 35 1012.4
20260503175622 58 12 5.0 12.0 0.00 0.00 0.00 38 1012.5
20260503175517 57 229 2.0 4.0 0.00 0.00 0.00 37 1012.5
20260503175429 57 282 3.0 4.0 0.00 0.00 0.00 40 1012.5
20260503175325 56 238 2.0 4.0 0.00 0.00 0.00 40 1012.2
20260503175220 56 204 3.0 11.0 0.00 0.00 0.00 37 1012.4
20260503175116 56 345 6.0 13.0 0.00 0.00 0.00 36 1012.3
20260503175028 56 9 5.0 9.0 0.00 0.00 0.00 38 1012.2
20260503174923 55 356 3.0 4.0 0.00 0.00 0.00 38 1012.5
20260503174818 55 352 2.0 5.0 0.00 0.00 0.00 37 1012.6
20260503174730 56 316 4.0 8.0 0.00 0.00 0.00 36 1012.4
20260503174626 57 272 4.0 9.0 0.00 0.00 0.00 37 1012.4
20260503174521 57 352 3.0 4.0 0.00 0.00 0.00 37 1012.6
20260503174417 57 353 4.0 6.0 0.00 0.00 0.00 39 1012.6
20260503174349 57 261 4.0 10.0 0.00 0.00 0.00 37 1012.6
20260503174224 57 309 4.0 7.0 0.00 0.00 0.00 39 1012.6
20260503174120 57 269 3.0 5.0 0.00 0.00 0.00 39 1012.5
20260503174015 57 20 4.0 5.0 0.00 0.00 0.00 37 1012.5
20260503173927 56 4 4.0 7.0 0.00 0.00 0.00 38 1012.4
20260503173823 56 5 5.0 6.0 0.00 0.00 0.00 38 1012.6
20260503173718 56 18 3.0 5.0 0.00 0.00 0.00 39 1012.6
20260503173630 56 70 4.0 7.0 0.00 0.00 0.00 38 1012.6
20260503173526 56 350 5.0 9.0 0.00 0.00 0.00 37 1012.6
20260503173421 56 289 4.0 7.0 0.00 0.00 0.00 39 1012.6
20260503173317 56 10 4.0 9.0 0.00 0.00 0.00 37 1012.8
20260503173228 56 265 4.0 7.0 0.00 0.00 0.00 38 1012.8
20260503173124 56 338 6.0 11.0 0.00 0.00 0.00 38 1012.7
20260503173020 56 245 5.0 10.0 0.00 0.00 0.00 39 1012.8
20260503172915 56 336 4.0 6.0 0.00 0.00 0.00 40 1012.7
20260503172827 55 5 3.0 5.0 0.00 0.00 0.00 40 1012.8
20260503172722 55 24 4.0 9.0 0.00 0.00 0.00 39 1012.9
20260503172618 55 38 6.0 9.0 0.00 0.00 0.00 39 1012.8
20260503172530 55 345 5.0 10.0 0.00 0.00 0.00 40 1012.8
20260503172425 54 327 5.0 11.0 0.00 0.00 0.00 40 1012.8
20260503172401 54 202 4.0 6.0 0.00 0.00 0.00 41 1012.7
20260503172228 54 212 2.0 4.0 0.00 0.00 0.00 38 1012.6
20260503172024 53 297 3.0 9.0 0.00 0.00 0.00 40 1012.5
20260503171919 54 312 5.0 11.0 0.00 0.00 0.00 38 1012.8
20260503171831 54 305 4.0 9.0 0.00 0.00 0.00 39 1012.9
20260503171726 54 186 2.0 4.0 0.00 0.00 0.00 40 1012.7
20260503171622 54 187 2.0 4.0 0.00 0.00 0.00 41 1012.5
20260503171518 54 54 2.0 4.0 0.00 0.00 0.00 39 1012.9
20260503171429 54 203 3.0 6.0 0.00 0.00 0.00 40 1012.9
20260503171325 54 234 3.0 6.0 0.00 0.00 0.00 40 1012.9
20260503171221 53 200 4.0 8.0 0.00 0.00 0.00 40 1012.8
20260503171136 53 342 3.0 6.0 0.00 0.00 0.00 40 1012.8
20260503171028 53 49 3.0 6.0 0.00 0.00 0.00 40 1012.9
20260503170943 53 218 3.0 6.0 0.00 0.00 0.00 41 1012.8
20260503170819 53 356 6.0 11.0 0.00 0.00 0.00 39 1012.7
20260503170730 53 338 8.0 12.0 0.00 0.00 0.00 39 1012.7
20260503170646 54 329 5.0 9.0 0.00 0.00 0.00 40 1012.8
20260503170522 54 332 6.0 14.0 0.00 0.00 0.00 39 1012.7
20260503170417 55 329 4.0 6.0 0.00 0.00 0.00 39 1012.9
20260503170329 55 168 2.0 5.0 0.00 0.00 0.00 40 1013.1
20260503170224 54 356 4.0 5.0 0.00 0.00 0.00 40 1012.7
20260503170120 54 20 3.0 5.0 0.00 0.00 0.00 41 1012.9
20260503160216 52 350 4.0 9.0 0.00 0.00 0.00 42 1013.4
20260503160128 53 341 6.0 9.0 0.00 0.00 0.00 41 1013.2
20260503150925 53 17 5.0 8.0 0.00 0.00 0.00 39 1013.4
20260503150820 53 355 5.0 7.0 0.00 0.00 0.00 40 1013.3
20260503150716 52 315 3.0 5.0 0.00 0.00 0.00 41 1013.4
20260503150628 52 38 2.0 9.0 0.00 0.00 0.00 40 1013.3
20260503150523 52 326 4.0 10.0 0.00 0.00 0.00 41 1013.4
20260503150419 52 30 5.0 6.0 0.00 0.00 0.00 41 1013.5
20260503150331 52 313 5.0 8.0 0.00 0.00 0.00 41 1013.5
20260503150226 52 355 5.0 10.0 0.00 0.00 0.00 41 1013.5
20260503150142 52 357 5.0 10.0 0.00 0.00 0.00 40 1013.1
20260503140218 52 69 3.0 4.0 0.00 0.00 0.00 45 1013.3
20260503140130 52 334 4.0 12.0 0.00 0.00 0.00 45 1013.2
20260503131326 50 188 2.0 4.0 0.00 0.00 0.00 52 1013.3
20260503131221 50 4 4.0 6.0 0.00 0.00 0.00 51 1013.2
20260503131117 50 27 4.0 8.0 0.00 0.00 0.00 50 1013.2
20260503131029 50 52 4.0 6.0 0.00 0.00 0.00 52 1013.3
20260503130924 50 33 4.0 6.0 0.00 0.00 0.00 51 1013.2
20260503130820 49 146 3.0 5.0 0.00 0.00 0.00 52 1013.3
20260503130715 50 33 8.0 14.0 0.00 0.00 0.00 51 1013.3
20260503130627 50 20 5.0 7.0 0.00 0.00 0.00 51 1013.3
20260503130542 50 26 3.0 5.0 0.00 0.00 0.00 54 1013.1
20260503130418 49 293 3.0 4.0 0.00 0.00 0.00 53 1013.3
20260503130330 49 23 2.0 5.0 0.00 0.00 0.00 53 1013.3
20260503130225 49 325 3.0 5.0 0.00 0.00 0.00 52 1013.4
20260503130121 49 356 3.0 7.0 0.00 0.00 0.00 52 1013.1
20260503120128 46 346 4.0 7.0 0.00 0.00 0.00 57 1013.1
20260503110817 45 330 3.0 4.0 0.00 0.00 0.00 57 1012.9
20260503110729 45 333 2.0 5.0 0.00 0.00 0.00 58 1012.8
20260503110625 45 343 3.0 6.0 0.00 0.00 0.00 57 1012.8
20260503110520 45 340 3.0 4.0 0.00 0.00 0.00 57 1012.6
20260503110415 45 38 1.0 3.0 0.00 0.00 0.00 58 1012.6
20260503110327 45 186 1.0 4.0 0.00 0.00 0.00 58 1012.6
20260503110223 45 5 3.0 5.0 0.00 0.00 0.00 57 1012.6
20260503110118 45 56 2.0 3.0 0.00 0.00 0.00 58 1012.6
20260503100250 45 5 3.0 4.0 0.00 0.00 0.00 55 1012.1
20260503100125 45 41 3.0 5.0 0.00 0.00 0.00 55 1011.9
20260503090450 46 355 2.0 4.0 0.00 0.02 0.00 51 1011.5
20260503090346 46 324 2.0 4.0 0.00 0.02 0.00 52 1011.5
20260503090242 46 17 3.0 5.0 0.00 0.02 0.00 51 1011.5
20260503090117 46 19 4.0 5.0 0.00 0.02 0.00 51 1011.3
20260503081626 47 25 4.0 7.0 0.00 0.02 0.00 50 1011.4
20260503081541 47 9 3.0 5.0 0.00 0.02 0.00 51 1011.2
20260503081437 47 54 3.0 4.0 0.00 0.02 0.00 51 1011.3
20260503081329 47 24 3.0 5.0 0.00 0.02 0.00 51 1011.3
20260503081220 47 94 2.0 6.0 0.00 0.02 0.00 51 1011.4
20260503081139 47 40 2.0 6.0 0.00 0.02 0.00 51 1011.2
20260503081015 47 271 2.0 4.0 0.00 0.02 0.00 51 1011.2
20260503080947 47 304 2.0 2.0 0.00 0.02 0.00 51 1011.2
20260503080823 47 1 2.0 5.0 0.00 0.02 0.00 51 1011.2
20260503080738 47 13 4.0 6.0 0.00 0.02 0.00 51 1011.2
20260503080630 47 49 2.0 4.0 0.00 0.02 0.00 51 1011.3
20260503080525 47 49 1.0 3.0 0.00 0.02 0.00 52 1011.2
20260503080421 47 21 2.0 3.0 0.00 0.02 0.00 52 1011.2
20260503080317 47 11 3.0 4.0 0.00 0.02 0.00 52 1011.2
20260503080228 47 44 4.0 5.0 0.00 0.02 0.00 52 1011.4
20260503080124 47 351 2.0 4.0 0.00 0.02 0.00 52 1011.3
20260503072926 47 14 1.0 2.0 0.00 0.02 0.00 52 1011.1
20260503072822 47 149 1.0 2.0 0.00 0.02 0.00 52 1011.1
20260503072717 47 56 1.0 2.0 0.00 0.02 0.00 52 1011.2
20260503072649 47 110 2.0 3.0 0.00 0.02 0.00 51 1011.2
20260503072525 47 2 2.0 3.0 0.00 0.02 0.00 52 1011.2
20260503072421 47 3 1.0 2.0 0.00 0.02 0.00 52 1011.3
20260503072316 47 36 2.0 3.0 0.00 0.02 0.00 52 1011.3
20260503072307 47 275 1.0 2.0 0.00 0.02 0.00 52 1011.2
20260503072123 47 45 1.0 2.0 0.00 0.02 0.00 52 1011.4
20260503072019 47 18 1.0 2.0 0.00 0.02 0.00 52 1011.2
20260503071930 47 54 1.0 2.0 0.00 0.02 0.00 52 1011.3
20260503071825 47 78 0.0 2.0 0.00 0.02 0.00 52 1011.3
20260503071721 47 86 0.0 2.0 0.00 0.02 0.00 52 1011.3
20260503071637 47 0.0 1.0 0.00 0.02 0.00 52 1011.4
20260503071528 47 0.0 1.0 0.00 0.02 0.00 51 1011.2
20260503071424 47 0.0 1.0 0.00 0.02 0.00 52 1011.1
20260503071319 47 83 0.0 2.0 0.00 0.02 0.00 51 1011.2
20260503071231 47 13 1.0 2.0 0.00 0.02 0.00 51 1011.1
20260503071127 47 16 0.0 2.0 0.00 0.02 0.00 51 1011.1
20260503071042 47 0.0 1.0 0.00 0.02 0.00 51 1011.2
20260503070917 47 0.0 1.0 0.00 0.02 0.00 51 1011.2
20260503070829 47 18 0.0 1.0 0.00 0.02 0.00 51 1011.2
20260503070725 47 146 1.0 2.0 0.00 0.02 0.00 50 1011.2
20260503070620 47 14 1.0 2.0 0.00 0.02 0.00 50 1011.3
20260503070516 47 32 1.0 3.0 0.00 0.02 0.00 51 1011.3
20260503070427 47 3 0.0 2.0 0.00 0.02 0.00 50 1011.3
20260503070323 47 35 1.0 2.0 0.00 0.02 0.00 50 1011.1
20260503070219 47 60 1.0 2.0 0.00 0.02 0.00 50 1011.3
20260503070150 47 49 1.0 2.0 0.00 0.02 0.00 51 1011.4
20260503070106 47 67 1.0 2.0 0.00 0.02 0.00 50 1011.3
20260503060226 49 298 0.0 2.0 0.00 0.03 0.00 46 1011.3
20260503060141 49 2 2.0 3.0 0.00 0.03 0.00 46 1011.7
20260503055125 50 67 2.0 3.0 0.00 0.03 0.00 46 1011.4
20260503055021 50 33 3.0 4.0 0.00 0.03 0.00 45 1011.8
20260503054916 50 45 2.0 4.0 0.00 0.03 0.00 46 1011.5
20260503054828 50 346 2.0 3.0 0.00 0.03 0.00 46 1011.7
20260503054723 50 71 1.0 2.0 0.00 0.03 0.00 46 1011.4
20260503054619 50 58 2.0 2.0 0.00 0.03 0.00 47 1011.4
20260503054530 50 206 0.0 1.0 0.00 0.03 0.00 46 1011.5
20260503054426 50 0.0 1.0 0.00 0.03 0.00 46 1011.7
20260503054321 50 5 2.0 3.0 0.00 0.03 0.00 46 1011.4
20260503054217 50 3 1.0 2.0 0.00 0.03 0.00 46 1011.6
20260503054128 50 21 1.0 2.0 0.00 0.03 0.00 46 1011.6
20260503054024 50 38 2.0 3.0 0.00 0.03 0.00 45 1011.5
20260503053920 50 348 2.0 2.0 0.00 0.03 0.00 46 1011.5
20260503053815 50 81 1.0 2.0 0.00 0.03 0.00 46 1011.5
20260503053727 50 36 1.0 2.0 0.00 0.03 0.00 46 1011.5
20260503053642 50 356 2.0 3.0 0.00 0.03 0.00 45 1011.7
20260503053558 50 336 3.0 4.0 0.00 0.03 0.00 45 1011.7
20260503053430 50 359 2.0 4.0 0.00 0.03 0.00 47 1011.7
20260503053325 50 355 1.0 2.0 0.00 0.03 0.00 45 1011.6
20260503053241 50 39 1.0 2.0 0.00 0.03 0.00 46 1011.6
20260503053116 50 344 1.0 4.0 0.00 0.03 0.00 46 1011.6
20260503053028 50 69 2.0 3.0 0.00 0.03 0.00 46 1011.7
20260503052924 50 68 1.0 2.0 0.00 0.03 0.00 46 1011.4
20260503052819 50 56 2.0 3.0 0.00 0.03 0.00 45 1011.5
20260503052731 50 46 2.0 3.0 0.00 0.03 0.00 46 1011.5
20260503052646 50 57 2.0 3.0 0.00 0.03 0.00 46 1011.4
20260503052602 50 57 1.0 2.0 0.00 0.03 0.00 46 1011.5
20260503052417 50 96 1.0 1.0 0.00 0.03 0.00 46 1011.7
20260503052329 50 48 1.0 3.0 0.00 0.03 0.00 45 1011.5
20260503052225 50 15 1.0 3.0 0.00 0.03 0.00 45 1011.5
20260503052120 50 47 1.0 4.0 0.00 0.03 0.00 45 1011.6
20260503052016 50 38 3.0 5.0 0.00 0.03 0.00 45 1011.6
20260503051948 50 80 1.0 2.0 0.00 0.03 0.00 46 1011.6
20260503051823 50 69 3.0 5.0 0.00 0.03 0.00 46 1011.7
20260503051719 50 59 2.0 3.0 0.00 0.03 0.00 46 1011.9
20260503051630 50 55 2.0 4.0 0.00 0.03 0.00 46 1011.8
20260503051526 50 317 0.0 2.0 0.00 0.03 0.00 46 1011.6
20260503051422 50 143 1.0 2.0 0.00 0.03 0.00 46 1011.8
20260503051317 50 6 0.0 1.0 0.00 0.03 0.00 46 1011.8
20260503051249 50 0.0 2.0 0.00 0.03 0.00 46 1011.5
20260503051124 50 159 1.0 2.0 0.00 0.03 0.00 45 1011.6
20260503051040 51 100 1.0 1.0 0.00 0.03 0.00 45 1011.7
20260503050916 50 34 1.0 3.0 0.00 0.03 0.00 45 1011.6
20260503050827 50 53 3.0 4.0 0.00 0.03 0.00 45 1011.8
20260503050723 50 47 0.0 2.0 0.00 0.03 0.00 46 1011.7
20260503050638 50 98 1.0 2.0 0.00 0.03 0.00 46 1011.7
20260503050530 50 41 1.0 2.0 0.00 0.03 0.00 46 1011.9
20260503050426 51 182 1.0 2.0 0.00 0.03 0.00 46 1011.6
20260503050321 51 37 2.0 2.0 0.00 0.03 0.00 45 1011.8
20260503050217 51 163 1.0 2.0 0.00 0.03 0.00 45 1011.9
20260503050128 51 46 0.0 2.0 0.00 0.03 0.00 45 1011.8
20260503050024 51 350 1.0 2.0 0.00 0.03 0.00 45 1011.7
20260503045919 51 81 1.0 2.0 0.00 0.03 0.00 44 1011.8
20260503045815 51 35 2.0 4.0 0.00 0.03 0.00 45 1011.9
20260503045727 51 89 1.0 2.0 0.00 0.03 0.00 45 1011.9
20260503045622 51 38 1.0 2.0 0.00 0.03 0.00 44 1012.0
20260503045518 51 66 2.0 5.0 0.00 0.03 0.00 44 1011.8
20260503045430 51 29 2.0 2.0 0.00 0.03 0.00 45 1011.9
20260503045325 51 53 0.0 2.0 0.00 0.03 0.00 45 1011.9
20260503045221 51 30 1.0 2.0 0.00 0.03 0.00 45 1012.0
20260503045116 51 120 1.0 2.0 0.00 0.03 0.00 45 1012.0
20260503045028 51 11 1.0 3.0 0.00 0.03 0.00 44 1011.9
20260503044924 51 355 1.0 3.0 0.00 0.03 0.00 44 1012.1
20260503044819 51 37 2.0 3.0 0.00 0.03 0.00 45 1011.9
20260503044731 51 66 2.0 3.0 0.00 0.03 0.00 45 1012.0
20260503044646 51 353 2.0 3.0 0.00 0.03 0.00 45 1012.0
20260503044542 51 96 1.0 3.0 0.00 0.03 0.00 45 1012.0
20260503044417 51 56 0.0 2.0 0.00 0.03 0.00 45 1012.0
20260503044329 51 93 1.0 2.0 0.00 0.03 0.00 45 1012.1
20260503044224 51 0.0 3.0 0.00 0.03 0.00 44 1011.9
20260503044140 51 95 1.0 2.0 0.00 0.03 0.00 45 1011.8
20260503044016 51 48 1.0 3.0 0.00 0.03 0.00 45 1012.0
20260503043927 51 44 2.0 4.0 0.00 0.03 0.00 44 1012.1
20260503043823 51 50 2.0 2.0 0.00 0.03 0.00 44 1012.0
20260503043718 51 11 2.0 3.0 0.00 0.03 0.00 44 1012.0
20260503043630 51 34 2.0 4.0 0.00 0.03 0.00 44 1012.0
20260503043526 51 56 1.0 5.0 0.00 0.03 0.00 44 1011.9
20260503043421 51 244 2.0 3.0 0.00 0.03 0.00 44 1012.0
20260503043317 51 352 3.0 5.0 0.00 0.03 0.00 44 1011.9
20260503043249 51 15 2.0 5.0 0.00 0.03 0.00 44 1011.9
20260503043124 51 79 1.0 3.0 0.00 0.03 0.00 44 1011.8
20260503043040 51 40 1.0 2.0 0.00 0.03 0.00 44 1011.8
20260503042915 51 16 0.0 3.0 0.00 0.03 0.00 45 1011.8
20260503042827 51 49 2.0 3.0 0.00 0.03 0.00 45 1012.0
20260503042722 51 173 0.0 3.0 0.00 0.03 0.00 45 1012.0
20260503042638 51 340 2.0 3.0 0.00 0.03 0.00 44 1012.0
20260503042530 51 55 2.0 3.0 0.00 0.03 0.00 44 1012.0
20260503042425 51 108 2.0 2.0 0.00 0.03 0.00 45 1012.0
20260503042341 51 17 1.0 2.0 0.00 0.03 0.00 45 1012.0
20260503042217 51 143 2.0 3.0 0.00 0.03 0.00 45 1012.1
20260503042128 51 77 0.0 2.0 0.00 0.03 0.00 45 1012.1
20260503042024 51 73 1.0 2.0 0.00 0.03 0.00 44 1012.1
20260503041919 51 34 1.0 2.0 0.00 0.03 0.00 44 1011.8
20260503041815 51 3 1.0 2.0 0.00 0.03 0.00 44 1011.9
20260503041727 51 40 1.0 2.0 0.00 0.03 0.00 45 1012.0
20260503041622 51 116 1.0 2.0 0.00 0.03 0.00 45 1012.1
20260503041518 51 67 1.0 2.0 0.00 0.03 0.00 44 1012.0
20260503041430 51 146 0.0 2.0 0.00 0.03 0.00 45 1012.0
20260503041325 51 154 1.0 2.0 0.00 0.03 0.00 44 1012.1
20260503041221 51 18 2.0 2.0 0.00 0.03 0.00 44 1011.7
20260503041117 51 198 1.0 3.0 0.00 0.03 0.00 45 1011.9
20260503041028 51 31 0.0 2.0 0.00 0.03 0.00 45 1012.0
20260503040924 51 46 1.0 3.0 0.00 0.03 0.00 44 1012.1
20260503040819 51 209 1.0 2.0 0.00 0.03 0.00 44 1012.3
20260503040731 51 42 2.0 3.0 0.00 0.03 0.00 43 1012.2
20260503040626 51 156 0.0 2.0 0.00 0.03 0.00 44 1012.1
20260503040522 51 11 1.0 2.0 0.00 0.03 0.00 43 1011.9
20260503040418 51 10 2.0 2.0 0.00 0.03 0.00 43 1011.9
20260503040329 51 61 1.0 2.0 0.00 0.03 0.00 43 1012.0
20260503040225 51 26 1.0 2.0 0.00 0.03 0.00 43 1012.0
20260503040121 51 139 2.0 3.0 0.00 0.03 0.00 43 1012.2
20260503040016 51 19 1.0 2.0 0.00 0.03 0.00 43 1012.1
20260503035928 51 49 2.0 4.0 0.00 0.03 0.03 43 1011.9
20260503035843 51 340 1.0 3.0 0.00 0.03 0.03 43 1012.0
20260503035719 51 26 1.0 2.0 0.00 0.03 0.03 43 1012.1
20260503035631 51 38 2.0 4.0 0.00 0.03 0.03 43 1012.0
20260503035526 51 23 2.0 3.0 0.00 0.03 0.03 44 1012.2
20260503035421 51 40 1.0 3.0 0.00 0.03 0.03 44 1012.0
20260503035317 51 169 0.0 2.0 0.00 0.03 0.03 44 1011.9
20260503035229 51 52 1.0 3.0 0.00 0.03 0.03 44 1012.1
20260503035124 51 66 1.0 3.0 0.00 0.03 0.03 43 1012.0
20260503035040 51 57 0.0 1.0 0.00 0.03 0.03 43 1012.0
20260503034916 51 44 1.0 2.0 0.00 0.03 0.03 44 1012.0
20260503034827 51 85 0.0 1.0 0.00 0.03 0.03 44 1012.0
20260503034723 51 70 1.0 2.0 0.00 0.03 0.03 44 1011.9
20260503034618 51 342 1.0 1.0 0.00 0.03 0.03 43 1011.9
20260503034550 51 16 1.0 2.0 0.00 0.03 0.03 43 1012.0
20260503034426 51 25 1.0 2.0 0.00 0.03 0.03 44 1011.9
20260503034321 51 56 1.0 2.0 0.00 0.03 0.03 43 1012.0
20260503034217 51 0.0 0.0 0.00 0.03 0.03 43 1011.9
20260503034128 51 0.0 0.0 0.00 0.03 0.03 44 1011.8
20260503034024 51 0.0 1.0 0.00 0.03 0.03 43 1012.1
20260503033920 51 37 0.0 1.0 0.00 0.03 0.03 43 1012.0
20260503033815 51 50 1.0 1.0 0.00 0.03 0.03 44 1011.8
20260503033727 51 48 1.0 3.0 0.00 0.03 0.03 43 1012.0
20260503033622 51 20 1.0 2.0 0.00 0.03 0.03 43 1011.9
20260503033518 51 100 1.0 2.0 0.00 0.03 0.03 43 1011.8
20260503033430 52 133 2.0 2.0 0.00 0.03 0.03 43 1011.7
20260503033325 52 16 1.0 2.0 0.00 0.03 0.03 43 1011.7
20260503033241 52 67 1.0 4.0 0.00 0.03 0.03 43 1011.8
20260503033116 51 45 2.0 4.0 0.00 0.03 0.03 43 1011.7
20260503033108 51 55 2.0 3.0 0.00 0.03 0.03 43 1012.1
20260503032924 51 5 1.0 2.0 0.00 0.03 0.03 43 1011.7
20260503032819 51 96 2.0 3.0 0.00 0.03 0.03 43 1011.9
20260503032715 51 10 1.0 2.0 0.00 0.03 0.03 43 1011.9
20260503032627 51 172 0.0 2.0 0.00 0.03 0.03 43 1011.9
20260503032522 51 21 1.0 3.0 0.00 0.03 0.03 43 1011.8
20260503032418 52 125 1.0 2.0 0.00 0.03 0.03 43 1012.0
20260503032329 52 164 0.0 2.0 0.00 0.03 0.03 43 1011.9
20260503032225 52 315 0.0 2.0 0.00 0.03 0.03 44 1012.0
20260503032120 52 68 1.0 2.0 0.00 0.03 0.03 43 1011.8
20260503032016 52 114 0.0 1.0 0.00 0.03 0.03 43 1011.9
20260503031948 52 69 1.0 2.0 0.00 0.03 0.03 43 1011.9
20260503031823 52 3 1.0 2.0 0.00 0.03 0.03 43 1011.8
20260503031719 52 70 1.0 2.0 0.00 0.03 0.03 43 1011.9
20260503031711 52 1 1.0 2.0 0.00 0.03 0.03 43 1012.0
20260503031526 52 47 1.0 2.0 0.00 0.03 0.03 43 1012.0
20260503031421 52 323 1.0 2.0 0.00 0.03 0.03 43 1011.9
20260503031317 52 342 1.0 2.0 0.00 0.03 0.03 43 1011.8
20260503031229 52 57 1.0 2.0 0.00 0.03 0.03 42 1011.8
20260503031144 52 27 1.0 2.0 0.00 0.03 0.03 43 1011.9
20260503031040 52 99 1.0 2.0 0.00 0.03 0.03 43 1011.8
20260503030915 52 148 1.0 2.0 0.00 0.03 0.03 44 1011.8
20260503030827 52 89 1.0 2.0 0.00 0.03 0.03 43 1011.9
20260503030742 52 30 0.0 2.0 0.00 0.03 0.03 42 1011.9
20260503030618 52 54 1.0 2.0 0.00 0.03 0.03 43 1011.9
20260503030530 52 154 1.0 2.0 0.00 0.03 0.03 43 1011.9
20260503030425 52 313 0.0 1.0 0.00 0.03 0.03 42 1012.0
20260503030321 52 35 1.0 2.0 0.00 0.03 0.03 42 1011.8
20260503030216 52 47 1.0 2.0 0.00 0.03 0.03 42 1011.8
20260503030128 52 39 1.0 2.0 0.00 0.03 0.03 42 1012.0
20260503030024 52 50 1.0 3.0 0.00 0.03 0.03 42 1012.0
20260503025919 52 126 1.0 2.0 0.00 0.03 0.03 42 1011.9
20260503025815 52 242 1.0 2.0 0.00 0.03 0.03 41 1011.9
20260503025727 52 70 1.0 2.0 0.00 0.03 0.03 42 1011.8
20260503025622 52 86 1.0 2.0 0.00 0.03 0.03 42 1012.0
20260503025518 53 80 1.0 1.0 0.00 0.03 0.03 42 1011.7
20260503025429 53 36 0.0 1.0 0.00 0.03 0.03 41 1011.8
20260503025325 53 325 0.0 2.0 0.00 0.03 0.03 41 1011.8
20260503025221 53 144 1.0 2.0 0.00 0.03 0.03 41 1011.7
20260503025116 53 30 2.0 5.0 0.00 0.03 0.03 40 1011.9
20260503025028 53 12 3.0 4.0 0.00 0.03 0.03 40 1011.8
20260503024923 53 14 1.0 2.0 0.00 0.03 0.03 40 1012.0
20260503024819 53 38 1.0 3.0 0.00 0.03 0.03 41 1011.9
20260503024731 53 53 3.0 6.0 0.00 0.03 0.03 40 1011.9
20260503024626 53 22 2.0 5.0 0.00 0.03 0.03 41 1011.8
20260503024602 53 61 2.0 4.0 0.00 0.03 0.03 41 1011.7
20260503024437 53 49 2.0 3.0 0.00 0.03 0.03 41 1011.8
20260503024329 53 32 2.0 4.0 0.00 0.03 0.03 41 1011.9
20260503024245 53 49 2.0 2.0 0.00 0.03 0.03 41 1011.8
20260503024120 53 10 1.0 3.0 0.00 0.03 0.03 41 1012.0
20260503024016 53 75 1.0 4.0 0.00 0.03 0.03 41 1011.9
20260503023927 53 11 3.0 4.0 0.00 0.03 0.03 41 1011.8
20260503023843 53 37 2.0 5.0 0.00 0.03 0.03 41 1011.8
20260503023718 53 1 1.0 2.0 0.00 0.03 0.03 40 1011.7
20260503023630 53 3 2.0 4.0 0.00 0.03 0.03 41 1011.7
20260503023526 53 27 2.0 4.0 0.00 0.03 0.03 40 1011.9
20260503023422 53 67 2.0 3.0 0.00 0.03 0.03 40 1011.8
20260503023317 53 18 1.0 5.0 0.00 0.03 0.03 41 1011.8
20260503023229 53 4 3.0 4.0 0.00 0.03 0.03 40 1012.0
20260503023124 53 352 1.0 2.0 0.00 0.03 0.03 41 1012.0
20260503023040 53 3 1.0 2.0 0.00 0.03 0.03 41 1011.8
20260503022915 53 41 1.0 2.0 0.00 0.03 0.03 41 1011.8
20260503022827 53 326 2.0 4.0 0.00 0.03 0.03 41 1011.9
20260503022722 53 155 2.0 2.0 0.00 0.03 0.03 41 1011.7
20260503022618 53 358 2.0 4.0 0.00 0.03 0.03 40 1011.7
20260503022530 53 243 2.0 4.0 0.00 0.03 0.03 40 1011.7
20260503022425 53 141 1.0 4.0 0.00 0.03 0.03 40 1011.7
20260503022321 53 85 1.0 2.0 0.00 0.03 0.03 41 1011.7
20260503022217 53 23 2.0 4.0 0.00 0.03 0.03 41 1011.7
20260503022128 53 335 2.0 3.0 0.00 0.03 0.03 41 1011.7
20260503022024 53 358 1.0 3.0 0.00 0.03 0.03 41 1011.7
20260503021919 53 197 2.0 3.0 0.00 0.03 0.03 41 1011.8
20260503021815 53 266 1.0 2.0 0.00 0.03 0.03 41 1011.7
20260503021807 53 27 1.0 3.0 0.00 0.03 0.03 40 1011.7
20260503021622 54 19 2.0 3.0 0.00 0.03 0.03 40 1011.7
20260503021518 54 108 1.0 2.0 0.00 0.03 0.03 41 1011.7
20260503021429 54 29 1.0 4.0 0.00 0.03 0.03 40 1011.8
20260503021325 54 51 2.0 6.0 0.00 0.03 0.03 41 1011.7
20260503021221 54 54 4.0 8.0 0.00 0.03 0.03 41 1011.7
20260503021116 54 16 1.0 2.0 0.00 0.03 0.03 40 1011.7
20260503021028 54 359 2.0 3.0 0.00 0.03 0.03 40 1011.7
20260503020923 54 26 3.0 4.0 0.00 0.03 0.03 40 1011.7
20260503020819 54 108 2.0 3.0 0.00 0.03 0.03 41 1011.7
20260503020731 54 51 1.0 3.0 0.00 0.03 0.03 41 1011.9
20260503020626 54 35 1.0 3.0 0.00 0.03 0.03 41 1011.9
20260503020542 54 28 2.0 3.0 0.00 0.03 0.03 41 1012.0
20260503020437 54 13 1.0 2.0 0.00 0.03 0.03 41 1012.0
20260503020329 54 53 2.0 2.0 0.00 0.03 0.03 41 1012.0
20260503020224 54 37 2.0 3.0 0.00 0.03 0.03 41 1011.9
20260503020120 54 10 2.0 4.0 0.00 0.03 0.03 41 1011.9
20260503020036 54 36 2.0 4.0 0.00 0.03 0.03 41 1011.9
20260503015927 54 360 2.0 3.0 0.00 0.03 0.03 41 1012.0
20260503015823 54 49 2.0 3.0 0.00 0.03 0.03 41 1012.0
20260503015718 54 208 1.0 2.0 0.00 0.03 0.03 41 1011.9
20260503015630 54 34 2.0 2.0 0.00 0.03 0.03 41 1011.9
20260503015526 54 11 1.0 2.0 0.00 0.03 0.03 41 1012.0
20260503015421 54 102 1.0 2.0 0.00 0.03 0.03 42 1011.7
20260503015317 54 172 0.0 2.0 0.00 0.03 0.03 41 1011.9
20260503015248 54 56 2.0 2.0 0.00 0.03 0.03 40 1011.8
20260503015124 54 86 1.0 2.0 0.00 0.03 0.03 41 1011.7
20260503015020 54 139 0.0 2.0 0.00 0.03 0.03 40 1011.7
20260503014915 54 21 2.0 3.0 0.00 0.03 0.03 40 1011.8
20260503014827 54 50 1.0 3.0 0.00 0.03 0.03 40 1011.9
20260503014722 54 39 1.0 3.0 0.00 0.03 0.03 40 1012.0
20260503014618 54 34 1.0 2.0 0.00 0.03 0.03 41 1011.9
20260503014530 54 31 1.0 4.0 0.00 0.03 0.03 41 1011.8
20260503014425 54 37 1.0 2.0 0.00 0.03 0.03 41 1012.1
20260503014321 54 61 2.0 2.0 0.00 0.03 0.03 40 1012.0
20260503014216 54 23 2.0 3.0 0.00 0.03 0.03 40 1012.0
20260503014148 54 120 1.0 2.0 0.00 0.03 0.03 41 1011.8
20260503014023 54 353 1.0 2.0 0.00 0.03 0.03 40 1012.1
20260503013919 54 48 2.0 3.0 0.00 0.03 0.03 40 1012.1
20260503013831 54 51 1.0 3.0 0.00 0.03 0.03 40 1012.0
20260503013726 54 12 1.0 2.0 0.00 0.03 0.03 41 1012.0
20260503013622 54 310 2.0 2.0 0.00 0.03 0.03 41 1012.1
20260503013518 54 77 1.0 3.0 0.00 0.03 0.03 40 1012.0
20260503013429 54 31 2.0 4.0 0.00 0.03 0.03 40 1012.0
20260503013325 54 56 1.0 2.0 0.00 0.03 0.03 40 1011.9
20260503013240 54 66 1.0 2.0 0.00 0.03 0.03 39 1012.1
20260503013116 54 29 2.0 3.0 0.00 0.03 0.03 40 1012.0
20260503013027 54 132 2.0 3.0 0.00 0.03 0.03 40 1011.9
20260503012923 54 22 1.0 2.0 0.00 0.03 0.03 40 1011.9
20260503012819 55 180 1.0 2.0 0.00 0.03 0.03 41 1012.0
20260503012750 55 25 1.0 2.0 0.00 0.03 0.03 40 1011.9
20260503012626 55 354 1.0 4.0 0.00 0.03 0.03 39 1012.1
20260503012521 55 54 1.0 3.0 0.00 0.03 0.03 40 1011.9
20260503012417 55 131 1.0 2.0 0.00 0.03 0.03 40 1012.0
20260503012349 55 33 2.0 3.0 0.00 0.03 0.03 40 1011.9
20260503012225 55 34 2.0 4.0 0.00 0.03 0.03 40 1012.0
20260503012120 55 354 2.0 3.0 0.00 0.03 0.03 41 1012.0
20260503012016 55 156 1.0 2.0 0.00 0.03 0.03 41 1012.0
20260503011947 55 59 1.0 2.0 0.00 0.03 0.03 41 1012.0
20260503011823 55 99 1.0 2.0 0.00 0.03 0.03 40 1012.0
20260503011719 55 117 2.0 2.0 0.00 0.03 0.03 40 1011.9
20260503011630 55 27 1.0 2.0 0.00 0.03 0.03 40 1011.9
20260503011526 55 51 1.0 2.0 0.00 0.03 0.03 40 1012.0
20260503011421 55 73 1.0 2.0 0.00 0.03 0.03 40 1011.9
20260503011317 55 120 1.0 3.0 0.00 0.03 0.03 40 1012.0
20260503011228 55 57 1.0 3.0 0.00 0.03 0.03 40 1011.7
20260503011124 55 20 1.0 2.0 0.00 0.03 0.03 40 1011.9
20260503011020 55 69 1.0 2.0 0.00 0.03 0.03 40 1011.8
20260503010935 55 31 1.0 2.0 0.00 0.03 0.03 40 1012.0
20260503010827 55 56 1.0 3.0 0.00 0.03 0.03 39 1011.7
20260503010722 55 353 2.0 4.0 0.00 0.03 0.03 40 1011.7
20260503010618 55 54 1.0 2.0 0.00 0.03 0.03 40 1011.8
20260503010530 55 11 1.0 2.0 0.00 0.03 0.03 40 1011.8
20260503010425 55 31 2.0 2.0 0.00 0.03 0.03 40 1011.9
20260503010321 55 338 1.0 3.0 0.00 0.03 0.03 40 1011.9
20260503010217 55 101 2.0 2.0 0.00 0.03 0.03 40 1011.8
20260503010148 55 154 1.0 2.0 0.00 0.03 0.03 40 1011.8
20260503010043 55 61 1.0 2.0 0.00 0.03 0.03 39 1011.9
20260503005919 55 67 1.0 3.0 0.00 0.03 0.03 39 1011.7
20260503005831 55 341 3.0 4.0 0.00 0.03 0.03 40 1011.8
20260503005747 55 151 0.0 2.0 0.00 0.03 0.03 41 1011.8
20260503005642 55 87 1.0 2.0 0.00 0.03 0.03 41 1011.7
20260503005518 55 354 0.0 2.0 0.00 0.03 0.03 40 1011.6
20260503005449 55 80 1.0 2.0 0.00 0.03 0.03 39 1011.7
20260503005325 55 56 0.0 1.0 0.00 0.03 0.03 39 1011.6
20260503005221 55 11 0.0 2.0 0.00 0.03 0.03 39 1011.6
20260503005116 55 1 1.0 2.0 0.00 0.03 0.03 40 1011.6
20260503005028 55 37 1.0 2.0 0.00 0.03 0.03 40 1011.6
20260503004923 55 24 1.0 3.0 0.00 0.03 0.03 40 1011.6
20260503004819 55 0 1.0 2.0 0.00 0.03 0.03 41 1011.6
20260503004731 55 97 1.0 2.0 0.00 0.03 0.03 41 1011.5
20260503004646 55 112 0.0 1.0 0.00 0.03 0.03 41 1011.7
20260503004522 55 0.0 2.0 0.00 0.03 0.03 40 1011.6
20260503004417 55 56 1.0 2.0 0.00 0.03 0.03 40 1011.7
20260503004329 55 39 1.0 2.0 0.00 0.03 0.03 40 1011.5